Location: ?????
(31.8092°N, 35.2590°E)
Time: 19:11:10
(UTC+00:00)

N. Korean satellite - Pass Details

Date: 23 September 2021
Orbit: 450 x 495 km, 97.3° (Epoch: 16 October)

Event Time Altitude Azimuth Distance (km) Brightness Sun altitude
Rises 02:55:49 0° 8° (N) 2,521 10.4 -7.6°
Reaches altitude 10° 02:57:52 10° 6° (N) 1,648 9.4 -7.2°
Maximum altitude 03:01:23 71° 283° (WNW) 510 6.5 -6.4°
Drops below altitude 10° 03:04:57 10° 198° (SSW) 1,662 9.1 -5.7°
Sets 03:07:01 0° 197° (SSW) 2,545 10.0 -5.2°
